Weather History for Marathon, FL

Change the Weather History Date:

Tuesday, November 29, 2011

  Actual Average Record
Temperature  
Mean Temperature 73 °F 74 °F  
Max Temperature 77 °F 79 °F 85 °F (2007)
Min Temperature 69 °F 70 °F 59 °F (2002)
Degree Days  
Heating Degree Days 0 0  
Month to date heating degree days 0 0  
Since 1 July heating degree days 0 0  
Cooling Degree Days 8 9  
Month to date cooling degree days 358 316  
Year to date cooling degree days 5137 4755  
Growing Degree Days 22 (Base 50)    
Moisture  
Dew Point 63 °F    
Average Humidity 72    
Maximum Humidity 90    
Minimum Humidity 54    
Precipitation  
Precipitation 0.00 in 0.08 in 0.28 in (2000)
Month to date precipitation 0.30 2.74  
Year to date precipitation 35.81 44.07  
Snow  
Snow 0.00 in - - ()
Month to date snowfall 0.0  
Since 1 July snowfall 0.0  
Since 1 September snowfall 0.0  
Snow Depth 0.00 in    
Sea Level Pressure  
Sea Level Pressure 29.98 in    
Wind  
Wind Speed 11 mph (NNW)    
Max Wind Speed 17 mph    
Max Gust Speed 25 mph    
Visibility 10 miles    
Events      
T = Trace of Precipitation, MM = Missing Value Source: NWS Daily Summary

Daily Weather History Graph

Daily Weather History Graph

Search for Another Location

Airport:

Trip Planner

Search our weather history database for the weather conditions in past years. The results will help you decide how hot, cold, wet, or windy it might be!

Date:

Astronomy

Nov. 29, 2011 Rise Set
Actual Time 6:50 AM EST 5:34 PM EST
Civil Twilight 6:25 AM EST 5:59 PM EST
Nautical Twilight 5:57 AM EST 6:27 PM EST
Astronomical Twilight 5:29 AM EST 6:54 PM EST
Moon 10:45 AM EST (11/29) 10:13 PM EST (11/29)
Length of Visible Light 11h 33m
Length of Day
10h 44m
Waxing Crescent, 24% of the Moon is Illuminated
Nov 29
Waxing Crescent
Dec 2
First Quarter
Dec 10
Full
Dec 17
Last Quarter
Dec 24
New

Hourly Weather History & Observations

Time (EST) Temp. Dew Point Humidity Pressure Visibility Wind Dir Wind Speed Gust Speed Precip Events Conditions
12:21 AM 71.6 °F 68.0 °F 88% 29.94 in 10.0 mi NNW 12.7 mph 23.0 mph N/A   Overcast
12:41 AM 71.6 °F 68.0 °F 88% 29.94 in 10.0 mi NNW 11.5 mph 18.4 mph N/A   Overcast
12:53 AM 71.1 °F 68.0 °F 90% 29.94 in 10.0 mi NNW 13.8 mph 19.6 mph N/A   Mostly Cloudy
1:09 AM 71.6 °F 68.0 °F 88% 29.94 in 10.0 mi NNW 10.4 mph 20.7 mph N/A   Mostly Cloudy
1:18 AM 71.6 °F 68.0 °F 88% 29.94 in 10.0 mi NNW 15.0 mph 23.0 mph N/A   Overcast
1:32 AM 71.6 °F 68.0 °F 88% 29.94 in 10.0 mi NNW 10.4 mph 19.6 mph N/A   Overcast
1:53 AM 71.1 °F 68.0 °F 90% 29.94 in 10.0 mi NNW 11.5 mph 19.6 mph N/A   Overcast
2:01 AM 71.6 °F 68.0 °F 88% 29.94 in 10.0 mi NNW 10.4 mph 20.7 mph N/A   Overcast
2:53 AM 71.1 °F 66.0 °F 84% 29.94 in 10.0 mi NNW 12.7 mph 21.9 mph N/A   Overcast
3:53 AM 70.0 °F 64.9 °F 84% 29.95 in 10.0 mi North 13.8 mph 19.6 mph N/A   Overcast
4:53 AM 70.0 °F 64.9 °F 84% 29.96 in 10.0 mi North 10.4 mph - N/A   Overcast
5:18 AM 69.8 °F 64.4 °F 83% 29.95 in 10.0 mi North 11.5 mph 18.4 mph N/A   Overcast
5:53 AM 70.0 °F 64.0 °F 81% 29.95 in 10.0 mi North 11.5 mph - N/A   Overcast
6:53 AM 70.0 °F 64.9 °F 84% 29.98 in 10.0 mi North 9.2 mph 16.1 mph N/A   Overcast
7:28 AM 69.8 °F 64.4 °F 83% 29.99 in 10.0 mi North 10.4 mph 16.1 mph N/A   Overcast
7:53 AM 70.0 °F 64.9 °F 84% 29.99 in 10.0 mi North 10.4 mph 18.4 mph N/A   Overcast
8:10 AM 71.6 °F 64.4 °F 78% 30.00 in 10.0 mi North 9.2 mph 16.1 mph N/A   Overcast
8:53 AM 71.1 °F 64.9 °F 81% 30.01 in 10.0 mi North 8.1 mph - N/A   Overcast
9:53 AM 72.0 °F 64.0 °F 76% 30.03 in 10.0 mi North 8.1 mph - N/A   Overcast
10:53 AM 73.9 °F 64.9 °F 73% 30.03 in 10.0 mi North 9.2 mph - N/A   Overcast
12:53 PM 75.9 °F 57.0 °F 52% 29.99 in 10.0 mi WNW 9.2 mph 17.3 mph N/A   Overcast
1:53 PM 75.9 °F 59.0 °F 56% 29.96 in 10.0 mi NNW 11.5 mph - N/A   Mostly Cloudy
2:53 PM 75.9 °F 60.1 °F 58% 29.96 in 10.0 mi NW 10.4 mph - N/A   Clear
3:53 PM 73.9 °F 59.0 °F 59% 29.96 in 10.0 mi NNW 11.5 mph 19.6 mph N/A   Partly Cloudy
4:53 PM 73.0 °F 59.0 °F 61% 29.97 in 10.0 mi NW 11.5 mph 18.4 mph N/A   Scattered Clouds
5:53 PM 72.0 °F 59.0 °F 64% 29.98 in 10.0 mi NNW 10.4 mph 18.4 mph N/A   Mostly Cloudy
6:53 PM 71.1 °F 60.1 °F 68% 30.00 in 10.0 mi NNW 15.0 mph 21.9 mph N/A   Partly Cloudy
7:53 PM 71.1 °F 57.9 °F 63% 30.02 in 10.0 mi NNW 12.7 mph 20.7 mph N/A   Partly Cloudy
8:53 PM 70.0 °F 57.0 °F 63% 30.03 in 10.0 mi NNW 12.7 mph 23.0 mph N/A   Partly Cloudy
9:53 PM 69.1 °F 55.0 °F 61% 30.04 in 10.0 mi NNW 10.4 mph - N/A   Clear
10:53 PM 69.1 °F 55.0 °F 61% 30.04 in 10.0 mi NNW 9.2 mph - N/A   Partly Cloudy
11:53 PM 69.1 °F 54.0 °F 58% 30.04 in 10.0 mi NNW 10.4 mph - N/A   Clear